FW2099 Weather Reports


Display with metric or nautical units.
time (UTC)temp
F
wind
direction
speed
MPH
gust
MPH
rain 1hr
in
rain 24hr
in
rain mn
in
humidity
%
barometer
mb
20260901063904 72 268 1.0 3.0 0.00 0.00 0.00 90 1015.6
20260901062905 72 283 1.0 3.0 0.00 0.00 0.00 90 1015.6
20260901062404 72 237 0.0 2.0 0.00 0.00 0.00 89 1015.8
20260901061404 72 302 1.0 3.0 0.00 0.00 0.00 89 1015.8
20260901060904 72 254 1.0 3.0 0.00 0.00 0.00 89 1015.8
20260901055404 72 261 0.0 2.0 0.00 0.00 0.00 89 1016.1
20260901054903 72 243 0.0 2.0 0.00 0.00 0.00 88 1016.2
20260901053904 72 274 0.0 3.0 0.00 0.00 0.00 88 1016.1
20260901053403 72 300 0.0 2.0 0.00 0.00 0.00 88 1016.3
20260901052904 72 249 1.0 3.0 0.00 0.00 0.00 87 1016.4
20260901052403 72 260 1.0 3.0 0.00 0.00 0.00 87 1016.4
20260901051904 72 271 1.0 3.0 0.00 0.00 0.00 86 1016.4
20260901051404 72 224 1.0 2.0 0.00 0.00 0.00 86 1016.4
20260901045904 72 239 1.0 5.0 0.00 0.00 0.00 86 1016.5
20260901045404 72 161 1.0 3.0 0.00 0.00 0.00 86 1016.5
20260901044904 72 207 0.0 2.0 0.00 0.00 0.00 86 1016.5
20260901044404 72 299 0.0 2.0 0.00 0.00 0.00 86 1016.6
20260901043903 72 198 1.0 3.0 0.00 0.00 0.00 85 1016.6
20260901042904 72 292 0.0 3.0 0.00 0.00 0.00 85 1016.6
20260901041404 72 242 0.0 2.0 0.00 0.00 0.00 85 1016.8
20260901040903 72 209 1.0 2.0 0.00 0.00 0.00 85 1016.7
20260901040404 72 260 0.0 2.0 0.00 0.00 0.00 85 1016.8
20260901035903 72 294 1.0 2.0 0.00 0.00 0.00 85 1016.8
20260901035404 72 47 0.0 3.0 0.00 0.00 0.00 85 1016.8
20260901034904 72 254 1.0 5.0 0.00 0.00 0.00 84 1016.8
20260901034403 72 316 0.0 2.0 0.00 0.00 0.00 85 1016.9
20260901033903 72 208 1.0 3.0 0.00 0.00 0.00 84 1016.9
20260901033404 72 227 0.0 3.0 0.00 0.00 0.00 84 1016.9
20260901032904 72 233 0.0 3.0 0.00 0.00 0.00 84 1016.9
20260901031903 72 256 0.0 2.0 0.00 0.00 0.00 84 1017.0
20260901031404 72 280 0.0 2.0 0.00 0.00 0.00 84 1017.0
20260901030905 72 242 1.0 2.0 0.00 0.00 0.00 84 1017.0
20260901030403 72 257 0.0 2.0 0.00 0.00 0.00 84 1017.1
20260901025904 72 226 0.0 2.0 0.00 0.00 0.00 84 1017.1
20260901025403 72 281 0.0 2.0 0.00 0.00 0.00 84 1017.2
20260901024904 72 182 0.0 2.0 0.00 0.00 0.00 83 1017.2
20260901024404 72 288 1.0 3.0 0.00 0.00 0.00 83 1017.3
20260901023403 72 258 1.0 3.0 0.00 0.00 0.00 83 1017.4
20260901022403 72 203 1.0 3.0 0.00 0.00 0.00 83 1017.4
20260901021904 72 218 0.0 3.0 0.00 0.00 0.00 83 1017.3
20260901020905 72 270 0.0 2.0 0.00 0.00 0.00 83 1017.4
20260901020403 72 199 0.0 1.0 0.00 0.00 0.00 83 1017.4
20260901015903 72 211 0.0 1.0 0.00 0.00 0.00 83 1017.4
20260901015403 72 235 0.0 1.0 0.00 0.00 0.00 82 1017.4
20260901014904 72 247 0.0 1.0 0.00 0.00 0.00 82 1017.5
20260901014404 72 192 1.0 3.0 0.00 0.00 0.00 82 1017.5
20260901013403 72 239 0.0 1.0 0.00 0.00 0.00 82 1017.4
20260901012403 72 62 0.0 2.0 0.00 0.00 0.00 82 1017.5
20260901011403 72 162 0.0 2.0 0.00 0.00 0.00 82 1017.5
20260901010904 72 215 0.0 2.0 0.00 0.00 0.00 82 1017.5
20260901010403 72 210 1.0 2.0 0.00 0.00 0.00 82 1017.5
20260901005903 72 217 1.0 2.0 0.00 0.00 0.00 82 1017.4
20260901005403 72 215 1.0 2.0 0.00 0.00 0.00 82 1017.4
20260901004904 73 208 1.0 2.0 0.00 0.00 0.00 82 1017.3
20260901003903 73 108 0.0 2.0 0.00 0.00 0.00 82 1017.3
20260901003404 73 210 1.0 2.0 0.00 0.00 0.00 82 1017.3
20260901002403 73 258 1.0 3.0 0.00 0.00 0.00 81 1017.3
20260901001903 73 105 0.0 2.0 0.00 0.00 0.00 81 1017.3
20260901000903 73 65 0.0 2.0 0.00 0.00 0.00 81 1017.2
20260901000405 73 164 0.0 1.0 0.00 0.00 0.00 81 1017.2
20260831235404 73 86 1.0 3.0 0.00 0.00 0.00 80 1017.2
20260831234903 73 84 0.0 3.0 0.00 0.00 0.00 80 1017.3
20260831234404 73 40 0.0 1.0 0.00 0.00 0.00 80 1017.3
20260831233903 74 213 0.0 1.0 0.00 0.00 0.00 79 1017.3
20260831233405 74 54 0.0 1.0 0.00 0.00 0.00 79 1017.3
20260831232904 74 80 0.0 2.0 0.00 0.00 0.00 79 1017.3
20260831231904 74 188 0.0 1.0 0.00 0.00 0.00 78 1017.4
20260831231404 74 224 0.0 0.0 0.00 0.00 0.00 78 1017.4
20260831225903 75 91 1.0 3.0 0.00 0.00 0.00 77 1017.3
20260831224904 75 134 0.0 2.0 0.00 0.00 0.00 76 1017.3
20260831224404 76 216 0.0 2.0 0.00 0.00 0.00 75 1017.2
20260831222904 77 206 1.0 3.0 0.00 0.00 0.00 74 1017.3
20260831222404 77 267 1.0 3.0 0.00 0.00 0.00 73 1017.2
20260831215903 76 337 1.0 3.0 0.00 0.00 0.00 74 1017.4
20260831215404 76 241 0.0 1.0 0.00 0.00 0.00 74 1017.5
20260831214903 76 191 0.0 3.0 0.00 0.00 0.00 74 1017.6
20260831214405 76 233 1.0 2.0 0.00 0.00 0.00 73 1017.7
20260831213903 76 209 0.0 2.0 0.00 0.00 0.00 73 1017.7
20260831213403 76 112 0.0 3.0 0.00 0.00 0.00 73 1017.7
20260831212404 77 221 0.0 2.0 0.00 0.00 0.00 72 1017.6
20260831211404 77 275 1.0 2.0 0.00 0.00 0.00 72 1017.6
20260831210905 77 275 0.0 2.0 0.00 0.00 0.00 72 1017.5
20260831210404 77 216 1.0 3.0 0.00 0.00 0.00 72 1017.4
20260831205903 76 239 0.0 3.0 0.00 0.00 0.00 74 1017.5
20260831205404 77 101 1.0 3.0 0.00 0.00 0.00 73 1017.5
20260831204404 77 57 1.0 3.0 0.00 0.00 0.00 72 1017.6
20260831203904 77 145 1.0 5.0 0.00 0.00 0.00 72 1017.8
20260831203404 78 96 1.0 5.0 0.00 0.00 0.00 71 1017.9
20260831202904 77 319 1.0 3.0 0.00 0.00 0.00 72 1017.8
20260831202404 77 212 0.0 3.0 0.00 0.00 0.00 72 1017.8
20260831201903 76 209 0.0 3.0 0.00 0.00 0.00 72 1017.9
20260831201404 76 35 0.0 3.0 0.00 0.00 0.00 72 1018.0
20260831200904 76 218 0.0 3.0 0.00 0.00 0.00 72 1018.1
20260831200404 76 204 1.0 3.0 0.00 0.00 0.00 72 1018.2
20260831195403 77 78 1.0 3.0 0.00 0.00 0.00 71 1018.3
20260831194904 77 183 1.0 2.0 0.00 0.00 0.00 71 1018.3
20260831193904 77 287 1.0 2.0 0.00 0.00 0.00 71 1018.3
20260831192904 77 329 0.0 2.0 0.00 0.00 0.00 71 1018.4
20260831192403 76 64 1.0 2.0 0.00 0.00 0.00 72 1018.4
20260831191904 76 223 1.0 3.0 0.00 0.00 0.00 72 1018.5
20260831191403 76 30 2.0 5.0 0.00 0.00 0.00 71 1018.4
20260831190903 76 93 1.0 3.0 0.00 0.00 0.00 71 1018.6
20260831190403 76 59 1.0 5.0 0.00 0.00 0.00 72 1018.6
20260831185905 76 88 2.0 7.0 0.00 0.00 0.00 71 1018.6
20260831183904 76 73 3.0 7.0 0.00 0.00 0.00 71 1018.5
20260831183404 75 71 2.0 5.0 0.00 0.00 0.00 72 1018.7
20260831182904 75 54 3.0 3.0 0.00 0.00 0.00 72 1018.6
20260831181903 75 46 3.0 7.0 0.00 0.00 0.00 73 1018.7
20260831181404 74 65 5.0 8.0 0.00 0.00 0.00 73 1018.8
20260831180405 74 47 5.0 7.0 0.00 0.00 0.00 74 1018.9
20260831175904 74 67 6.0 8.0 0.00 0.00 0.00 73 1019.0
20260831175403 74 59 5.0 7.0 0.00 0.00 0.00 75 1019.2
20260831174904 74 52 6.0 8.0 0.00 0.00 0.00 73 1019.1
20260831174404 74 59 6.0 8.0 0.00 0.00 0.00 74 1018.7
20260831173903 74 78 7.0 9.0 0.00 0.00 0.00 73 1018.6
20260831173403 74 65 7.0 9.0 0.00 0.00 0.00 75 1018.9
20260831172904 74 78 6.0 8.0 0.00 0.00 0.00 75 1018.9
20260831172404 74 85 7.0 8.0 0.00 0.00 0.00 74 1018.9
20260831171903 74 61 6.0 8.0 0.00 0.00 0.00 72 1018.8
20260831171404 74 81 6.0 8.0 0.00 0.00 0.00 72 1018.8
20260831170403 74 69 4.0 7.0 0.00 0.00 0.00 74 1018.8
20260831165903 74 51 5.0 9.0 0.00 0.00 0.00 73 1018.9
20260831165404 74 74 6.0 8.0 0.00 0.00 0.00 74 1018.9
20260831164904 74 81 5.0 8.0 0.00 0.00 0.00 73 1018.9
20260831164404 73 81 6.0 8.0 0.00 0.00 0.00 72 1018.9
20260831163904 74 73 6.0 9.0 0.00 0.00 0.00 71 1018.9
20260831163404 74 67 3.0 7.0 0.00 0.00 0.00 72 1018.9
20260831162904 73 64 6.0 8.0 0.00 0.00 0.00 71 1018.8
20260831162403 73 80 6.0 8.0 0.00 0.00 0.00 73 1018.9
20260831161904 73 70 4.0 6.0 0.00 0.00 0.00 73 1019.2
20260831160404 73 88 5.0 9.0 0.00 0.00 0.00 72 1019.1
20260831155904 73 70 6.0 9.0 0.00 0.00 0.00 73 1018.9
20260831155403 73 77 5.0 7.0 0.00 0.00 0.00 73 1019.1
20260831154904 73 55 5.0 6.0 0.00 0.00 0.00 72 1019.0
20260831153403 73 58 3.0 5.0 0.00 0.00 0.00 72 1019.1
20260831151404 73 77 4.0 8.0 0.00 0.00 0.00 71 1019.2
20260831150404 73 84 3.0 8.0 0.00 0.00 0.00 74 1019.3
20260831145904 73 78 3.0 6.0 0.00 0.00 0.00 74 1019.3
20260831145404 73 82 5.0 6.0 0.00 0.00 0.00 74 1019.3
20260831144904 73 84 3.0 6.0 0.00 0.00 0.00 74 1019.3
20260831144403 73 88 2.0 6.0 0.00 0.00 0.00 75 1019.4
20260831143905 73 87 6.0 8.0 0.00 0.00 0.00 75 1019.4
20260831142903 73 86 4.0 7.0 0.00 0.00 0.00 75 1019.1
20260831142403 73 99 3.0 7.0 0.00 0.00 0.00 76 1019.1
20260831141404 72 93 5.0 7.0 0.00 0.00 0.00 75 1019.2
20260831140405 73 91 4.0 8.0 0.00 0.00 0.00 76 1019.1
20260831135404 73 91 5.0 7.0 0.00 0.00 0.00 77 1019.2
20260831134903 73 83 5.0 7.0 0.00 0.00 0.00 76 1019.2
20260831134404 73 81 2.0 3.0 0.00 0.00 0.00 78 1019.1
20260831132905 73 89 2.0 3.0 0.00 0.00 0.00 77 1019.1
20260831132403 73 102 3.0 5.0 0.00 0.00 0.00 77 1019.0
20260831131903 73 82 4.0 6.0 0.00 0.00 0.00 77 1019.0
20260831130904 73 84 3.0 6.0 0.00 0.00 0.00 78 1019.0
20260831130404 73 92 2.0 5.0 0.00 0.00 0.00 78 1018.8
20260831125904 73 79 1.0 3.0 0.00 0.00 0.00 78 1019.0
20260831125404 72 78 3.0 3.0 0.00 0.00 0.00 78 1019.1
20260831124904 72 86 3.0 5.0 0.00 0.00 0.00 78 1019.1
20260831123904 72 81 3.0 5.0 0.00 0.00 0.00 78 1019.0
20260831123404 72 113 2.0 3.0 0.00 0.00 0.00 79 1019.1
20260831122403 72 82 1.0 3.0 0.00 0.00 0.00 80 1019.1
20260831121904 72 89 1.0 2.0 0.00 0.00 0.00 81 1019.0
20260831121404 72 115 0.0 2.0 0.00 0.00 0.00 81 1019.0
20260831120904 72 128 0.0 2.0 0.00 0.00 0.00 81 1018.9
20260831115904 72 90 1.0 2.0 0.00 0.00 0.00 81 1019.0
20260831115404 72 90 1.0 2.0 0.00 0.00 0.00 81 1018.9
20260831114904 72 67 1.0 2.0 0.00 0.00 0.00 80 1018.8
20260831114404 72 87 1.0 2.0 0.00 0.00 0.00 81 1018.6
20260831113903 72 79 1.0 5.0 0.00 0.00 0.00 80 1018.7
20260831113404 72 90 3.0 6.0 0.00 0.00 0.00 80 1018.7
20260831112903 72 86 5.0 7.0 0.00 0.00 0.00 80 1018.7
20260831112403 72 62 5.0 7.0 0.00 0.00 0.00 80 1018.6
20260831111403 72 60 5.0 7.0 0.00 0.00 0.00 80 1018.7
20260831110904 72 65 6.0 7.0 0.00 0.00 0.00 79 1018.6
20260831110403 72 53 5.0 8.0 0.00 0.00 0.00 79 1018.6
20260831105903 72 74 6.0 8.0 0.00 0.00 0.00 78 1018.5
20260831105403 72 72 5.0 8.0 0.00 0.00 0.00 79 1018.4
20260831104903 72 41 6.0 7.0 0.00 0.00 0.00 78 1018.5
20260831104404 72 21 5.0 7.0 0.00 0.00 0.00 79 1018.5
20260831103904 72 33 5.0 8.0 0.00 0.00 0.00 79 1018.5
20260831103404 72 29 5.0 7.0 0.00 0.00 0.00 78 1018.4
20260831102904 72 14 5.0 7.0 0.00 0.00 0.00 79 1018.3
20260831102403 72 28 5.0 8.0 0.00 0.00 0.00 78 1018.2
20260831101404 72 36 6.0 8.0 0.00 0.00 0.00 78 1018.1
20260831100904 73 37 7.0 8.0 0.00 0.00 0.00 78 1018.0
20260831100404 73 24 6.0 8.0 0.00 0.00 0.00 77 1018.0
20260831095403 73 16 3.0 6.0 0.00 0.00 0.00 76 1017.9
20260831094904 73 24 4.0 6.0 0.00 0.00 0.00 76 1017.8
20260831094403 73 2 3.0 6.0 0.00 0.00 0.00 76 1017.7
20260831093904 73 25 3.0 5.0 0.00 0.00 0.00 76 1017.7
20260831093404 73 349 3.0 5.0 0.00 0.00 0.00 76 1017.7
20260831092903 73 326 3.0 6.0 0.00 0.00 0.00 76 1017.6
20260831092403 73 336 3.0 5.0 0.00 0.00 0.00 76 1017.7
20260831091904 73 345 3.0 5.0 0.00 0.00 0.00 76 1017.7
20260831090904 73 315 3.0 3.0 0.00 0.00 0.00 78 1017.8
20260831090403 73 312 3.0 3.0 0.00 0.00 0.00 77 1017.8
20260831085903 73 306 2.0 3.0 0.00 0.00 0.00 76 1017.7
20260831085403 73 303 3.0 5.0 0.00 0.00 0.00 77 1017.7
20260831084904 73 311 2.0 3.0 0.00 0.00 0.00 77 1017.6
20260831084404 73 319 3.0 6.0 0.00 0.00 0.00 77 1017.7
20260831083905 73 307 3.0 5.0 0.00 0.00 0.00 78 1017.8
20260831083404 73 316 3.0 5.0 0.00 0.00 0.00 77 1017.9
20260831082903 73 303 4.0 6.0 0.00 0.00 0.00 77 1017.9
20260831082403 73 305 5.0 6.0 0.00 0.00 0.00 77 1017.8
20260831081904 74 318 3.0 5.0 0.00 0.00 0.00 77 1017.7
20260831081404 74 319 3.0 5.0 0.00 0.00 0.00 76 1017.7
20260831080904 74 317 3.0 5.0 0.00 0.00 0.00 75 1017.6
20260831080404 74 315 5.0 7.0 0.00 0.00 0.00 75 1017.7
20260831075903 74 328 5.0 7.0 0.00 0.00 0.00 75 1017.6
20260831075403 74 319 5.0 7.0 0.00 0.00 0.00 75 1017.6
20260831074903 74 318 4.0 6.0 0.00 0.00 0.00 76 1017.6
20260831074404 74 319 5.0 6.0 0.00 0.00 0.00 74 1017.6
20260831073903 74 303 5.0 6.0 0.00 0.00 0.00 74 1017.7
20260831073405 74 306 3.0 6.0 0.00 0.00 0.00 75 1017.7
20260831072904 74 318 5.0 6.0 0.00 0.00 0.00 75 1017.6
20260831072403 74 317 3.0 5.0 0.00 0.00 0.00 75 1017.6
20260831071903 74 331 3.0 5.0 0.00 0.00 0.00 75 1017.6
20260831071404 74 315 3.0 6.0 0.00 0.00 0.00 75 1017.7
20260831070905 74 320 3.0 6.0 0.00 0.00 0.00 76 1017.8
20260831070404 74 328 3.0 7.0 0.00 0.00 0.00 77 1017.8
20260831065904 74 327 6.0 9.0 0.00 0.00 0.00 76 1017.8
20260831065404 74 350 7.0 9.0 0.00 0.00 0.00 75 1017.7
20260831064903 74 349 6.0 9.0 0.00 0.00 0.00 78 1017.7
20260831064404 74 325 5.0 7.0 0.00 0.00 0.00 79 1017.7